EW0538 Weather Reports


Display with metric or nautical units.
time (UTC)temp
F
wind
direction
speed
MPH
gust
MPH
rain 1hr
in
rain 24hr
in
rain mn
in
humidity
%
barometer
mb
20260506232337 53 304 3.0 10.0 0.00 0.02 0.02 31 1014.5
20260506231317 53 341 3.0 11.0 0.00 0.02 0.02 32 1014.3
20260506230332 54 274 3.0 11.0 0.00 0.02 0.02 31 1014.2
20260506225305 53 354 3.0 9.0 0.00 0.02 0.02 31 1013.9
20260506224233 54 328 2.0 14.0 0.00 0.03 0.02 32 1013.9
20260506223213 52 21 5.0 14.0 0.00 0.03 0.02 32 1013.8
20260506221119 52 324 1.0 6.0 0.00 0.03 0.02 32 1013.9
20260506220052 52 304 3.0 8.0 0.00 0.03 0.02 32 1013.7
20260506215036 51 353 0.0 5.0 0.00 0.03 0.02 34 1013.7
20260506214045 51 306 0.0 3.0 0.00 0.03 0.02 39 1013.7
20260506211853 51 240 0.0 8.0 0.00 0.03 0.02 37 1013.8
20260506210856 51 266 1.0 8.0 0.00 0.03 0.02 36 1013.8
20260506205848 52 309 1.0 4.0 0.00 0.03 0.02 39 1013.7
20260506204910 52 101 0.0 7.0 0.00 0.03 0.02 44 1013.6
20260506203901 48 169 2.0 7.0 0.00 0.03 0.02 48 1013.6
20260506201739 46 297 1.0 4.0 0.00 0.03 0.02 54 1013.5
20260506200721 46 250 0.0 5.0 0.00 0.03 0.02 56 1013.5
20260506195704 46 100 0.0 5.0 0.00 0.03 0.02 60 1013.3
20260506194637 45 44 2.0 7.0 0.00 0.03 0.02 62 1013.2
20260506193648 44 120 1.0 7.0 0.00 0.03 0.02 64 1013.3
20260506192712 43 50 1.0 7.0 0.00 0.03 0.02 65 1013.3
20260506191734 44 190 2.0 7.0 0.00 0.03 0.02 63 1013.2
20260506190722 46 315 2.0 9.0 0.00 0.03 0.02 62 1012.8
20260506184628 49 351 3.0 8.0 0.00 0.03 0.02 47 1012.6
20260506183602 50 16 2.0 7.0 0.00 0.03 0.02 49 1012.3
20260506182618 49 319 3.0 12.0 0.00 0.03 0.02 50 1012.2
20260506181604 48 37 3.0 12.0 0.00 0.03 0.02 52 1012.1
20260506180531 46 33 4.0 11.0 0.00 0.03 0.02 54 1012.0
20260506175533 45 353 3.0 10.0 0.00 0.03 0.02 57 1012.0
20260506174557 45 358 4.0 9.0 0.00 0.03 0.02 58 1011.9
20260506173539 45 15 3.0 11.0 0.00 0.03 0.02 60 1011.7
20260506171409 45 353 4.0 13.0 0.00 0.03 0.02 62 1011.3
20260506170354 46 47 4.0 13.0 0.00 0.03 0.02 60 1011.3
20260506165333 45 340 4.0 10.0 0.00 0.03 0.02 63 1011.0
20260506163242 43 56 3.0 10.0 0.00 0.03 0.02 71 1010.8
20260506162238 41 29 2.0 10.0 0.00 0.03 0.02 76 1010.6
20260506153953 39 319 4.0 10.0 0.00 0.03 0.02 86 1010.1
20260506152918 38 250 2.0 8.0 0.00 0.03 0.02 89 1009.8
20260506151845 38 49 1.0 6.0 0.00 0.03 0.02 91 1009.8
20260506150823 38 339 0.0 1.0 0.00 0.03 0.02 94 1009.7
20260506145847 37 322 0.0 0.0 0.00 0.03 0.02 95 1009.6
20260506144821 36 343 0.0 3.0 0.00 0.03 0.02 95 1009.5
20260506143821 36 343 1.0 4.0 0.04 0.03 0.02 96 1009.3
20260506142749 35 347 0.0 3.0 0.00 0.02 0.01 96 1009.2
20260506141723 35 357 0.0 3.0 0.00 0.01 0.00 95 1008.6
20260506125539 36 186 0.0 6.0 0.00 0.01 0.00 73 1007.7
20260506123347 37 165 1.0 3.0 0.00 0.01 0.00 71 1006.4
20260506122410 38 219 2.0 10.0 0.00 0.01 0.00 70 1006.3
20260506121358 39 172 0.0 6.0 0.00 0.01 0.00 70 1005.7
20260506115256 39 89 0.0 0.0 0.00 0.01 0.00 68 1004.9
20260506114249 39 88 0.0 0.0 0.00 0.01 0.00 68 1004.6
20260506113254 39 89 0.0 0.0 0.00 0.01 0.00 68 1004.5
20260506112220 39 88 0.0 0.0 0.00 0.01 0.00 67 1004.3
20260506090659 40 135 0.0 0.0 0.00 0.01 0.00 81 1005.0
20260506084527 42 342 0.0 0.0 0.00 0.01 0.00 80 1005.3
20260506083527 41 342 0.0 0.0 0.00 0.01 0.00 81 1005.3
20260506082523 41 343 0.0 0.0 0.00 0.01 0.00 81 1005.2
20260506081545 41 342 0.0 0.0 0.00 0.01 0.00 82 1005.2
20260506080524 42 259 0.0 0.0 0.00 0.01 0.00 80 1005.0
20260506073527 42 259 0.0 1.0 0.00 0.01 0.00 80 1005.0
20260506072456 42 347 0.0 0.0 0.00 0.01 0.00 79 1005.1
20260506071444 43 347 0.0 0.0 0.00 0.01 0.00 79 1005.2
20260506070505 42 290 0.0 0.0 0.00 0.01 0.00 79 1005.1
20260506061244 44 261 0.0 0.0 0.00 0.04 0.00 77 1004.9
20260506051010 46 134 0.0 0.0 0.00 0.07 0.04 70 1004.8
20260506044946 46 124 0.0 0.0 0.00 0.09 0.04 70 1004.6
20260506043928 46 255 0.0 0.0 0.00 0.11 0.04 67 1004.6
20260506042933 47 163 0.0 0.0 0.00 0.11 0.04 66 1004.6
20260506040751 47 143 0.0 0.0 0.00 0.11 0.04 63 1004.4
20260506034657 48 6 1.0 5.0 0.00 0.11 0.04 60 1004.1
20260506033715 48 342 1.0 5.0 0.00 0.14 0.04 59 1003.8
20260506032704 48 305 1.0 9.0 0.00 0.17 0.04 59 1003.7
20260506030617 48 349 1.0 5.0 0.00 0.23 0.04 59 1003.2
20260506025617 48 290 0.0 2.0 0.00 0.23 0.04 59 1003.0
20260506024546 49 19 0.0 3.0 0.00 0.24 0.04 59 1003.0
20260506023524 49 134 0.0 1.0 0.00 0.26 0.04 58 1002.8
20260506022525 49 270 0.0 0.0 0.00 0.29 0.04 57 1002.7
20260506021536 50 302 0.0 6.0 0.00 0.34 0.04 57 1002.5
20260506020517 50 64 2.0 0.0 0.00 0.34 0.04 57 1002.5
20260506015502 51 0 4.0 15.0 0.00 0.36 0.04 55 1002.2
20260506014428 51 330 6.0 15.0 0.00 0.37 0.04 54 1002.0
20260506013357 52 9 6.0 20.0 0.00 0.37 0.04 53 1001.8
20260506012413 52 313 5.0 20.0 0.00 0.37 0.04 52 1001.5
20260506011437 53 33 7.0 17.0 0.00 0.37 0.04 50 1001.3
20260506010407 53 355 7.0 19.0 0.00 0.37 0.04 49 1001.3
20260506005414 54 300 7.0 25.0 0.00 0.37 0.04 48 1001.1
20260506004410 55 297 7.0 25.0 0.00 0.37 0.04 46 1000.8
20260506003352 56 333 7.0 18.0 0.00 0.37 0.04 45 1000.5
20260506002412 58 330 7.0 18.0 0.00 0.37 0.04 43 1000.3
20260506000309 58 200 9.0 22.0 0.00 0.37 0.04 45 999.7
20260505235257 59 318 8.0 22.0 0.00 0.39 0.04 44 999.7
20260505234240 59 340 5.0 15.0 0.00 0.39 0.04 43 999.5
20260505233238 57 30 0.0 4.0 0.00 0.41 0.04 50 999.6